Regional Weather Roundup
Issued by NWS Charleston, SC

Current Version | Previous Version | Text Only | Print | Product List | Glossary Off
Versions: 1 2 3 4 5 6 7 8 9 10 11 12 13 14 15 16 17 18 19 20 21 22 23 24 25 26 27 28 29 30 31 32 33 34 35 36 37 38 39 40 41 42 43 44 45 46 47 48 49 50

000
ASUS42 KCHS 111810
RWRCHS
REGIONAL WEATHER ROUNDUP
NATIONAL WEATHER SERVICE CHARLESTON SC
200 PM EDT FRI JUL 11 2014

NOTE: "FAIR" INDICATES FEW OR NO CLOUDS BELOW 12,000 FEET WITH NO
SIGNIFICANT WEATHER AND/OR OBSTRUCTIONS TO VISIBILITY.

NOT ALL STATIONS ARE QUALITY CONTROLLED BY THE NATIONAL
WEATHER SERVICE. USE DATA WITH CAUTION...ESPECIALLY
DEWPOINT OBSERVATIONS.

SCZ027-030-031-034>040-042>050-111900-
...SOUTH CAROLINA...

CITY           SKY/WX    TMP DP  RH WIND       PRES   REMARKS
N CHARLESTON   CLOUDY    84  72  67 NE5       30.17S
6HR MIN TEMP:  78; 6HR MAX TEMP:  85; 6HR PCP: TRACE;

WATERFRONT PRK   N/A     82 N/A N/A NE5         N/A
FORT JOHNSON   NOT AVBL
MOUNT PLEASANT FAIR      81  75  83 CALM      30.17S
JOHNS ISLAND   PTCLDY    82  70  65 CALM      30.17S
PINOPOLIS        N/A     82  73  74 CALM      30.09S
MONCKS CORNER    N/A     81  75  83 CALM      30.17F
SUMMERVILLE    LGT RAIN  79  73  83 CALM      30.18S
BEAUFORT MCAS  CLOUDY    84  70  62 CALM      30.16F
6HR MIN TEMP:  76; 6HR MAX TEMP:  85;

BEAUFORT ARPT  FAIR      82  72  69 CALM      30.15F
HILTON HEAD IS PTSUNNY   82  73  74 CALM      30.17F
GEORGETOWN     NOT AVBL
WALTERBORO     CLOUDY    81  79  94 SE3       30.17F
ORANGEBURG     PTSUNNY   85  71  63 NE8       30.17S HX  90
6HR MIN TEMP:  73; 6HR MAX TEMP:  85;

BARNWELL       CLOUDY    84  73  70 E5        30.16F HX  91
AIKEN          FAIR      84  73  70 NE7       30.20F HX  91
MANNING        CLOUDY    82  81  94 CALM      30.18S HX  95
KINGSTREE      NOT AVBL
COLUMBIA       CLOUDY    81  71  71 E8        30.17F
6HR MIN TEMP:  75; 6HR MAX TEMP:  81;

SUMTER         CLOUDY    79  72  78 SE6       30.17S
6HR MIN TEMP:  74; 6HR MAX TEMP:  79;

FLORENCE       CLOUDY    80  71  74 NE3       30.18F
6HR MIN TEMP:  72; 6HR MAX TEMP:  80;

MYRTLE BEACH   MOSUNNY   77  72  83 E5        30.18S FOG
N MYRTLE BEACH LGT RAIN  76  72  87 CALM      30.18F
6HR MIN TEMP:  72; 6HR MAX TEMP:  77; 6HR PCP:  0.01;


$$

GAZ063-065-086>088-099>101-113>116-118-119-134-136>141-150-111900-
...GEORGIA...

CITY           SKY/WX    TMP DP  RH WIND       PRES   REMARKS
SAVANNAH ARPT  PTSUNNY   87  72  60 VRB5      30.15  THUNDER HX  93
6HR MIN TEMP:  75; 6HR MAX TEMP:  87;

HUNTER AAF     TSTM      75  72  88 S18G26    30.14R VSB 3/4
6HR MIN TEMP:  74; 6HR MAX TEMP:  87; 6HR PCP:  0.14;

FORT STEWART   LGT RAIN  81  73  78 N5        30.13F
6HR MIN TEMP:  74; 6HR MAX TEMP:  86; 6HR PCP:  0.01;

STATESBORO     NOT AVBL
SYLVANIA       MOCLDY    86  76  71 CALM      30.16F HX  96
CLAXTON        FAIR      84  75  74 CALM      30.15F HX  92
THOMSON        PTSUNNY   87  78  75 NE6       30.19F HX 100
AUGUSTA-BUSH   PTSUNNY   88  71  57 E7        30.13F HX  94
6HR MIN TEMP:  74; 6HR MAX TEMP:  89;

AUGUSTA-DANIEL PTSUNNY   88  71  57 E7        30.15F THUNDER HX  94
SWAINSBORO     MOCLDY    90  73  58 CALM      30.15F HX  98
VIDALIA          N/A     86  73  66 NE3       30.15F HX  93
ALMA           PTSUNNY   88  70  55 SW7       30.14S HX  93
6HR MIN TEMP:  74; 6HR MAX TEMP:  89;

WAYCROSS       PTSUNNY   90  75  61 NW7       30.13S HX 100
JESUP          NOT AVBL
BRUNSWICK      CLOUDY    82  72  69 E13       30.14F THUNDER
SAINT SIMONS   MOSUNNY   84  71  65 SE9G20    30.15S
6HR MIN TEMP:  81; 6HR MAX TEMP:  88;


$$

SCZ027-028-034-036>038-045-046-048>050-GAZ119-141-111900-
...LAKE AND SUPPLEMENTAL COASTAL OBSERVATIONS...

STATION/POSITION TIME  TEMP    WIND        PRES    WAVE   SWELL
                       AIR SEA DIR/SP/G            HT/PER HT/PER/DIR
                 (UTC) (F)     (DEG/KT/KT) (MB)    (FT/S) (FT/S/D)
UPR LAKE MARION  NOT AVBL
WINYAH BAY       1700   79      70/  6     1022.0S
LAKE MURRAY      1700   78      60/  3/  9 1021.3F
ACE BASIN NERRS  1700   85     350/  1     1022.0S
FORT PULASKI     1800   78 79  340/ 12/ 14   N/A
SAPELO ISLAND    1700   90     130/  8     1022.0S

$$

ANZ835-935-AMZ111-154-330-350-352-354-374-450-454-472-111900-
...C-MAN AND BUOY OBSERVATIONS...

STATION/POSITION TIME  TEMP    WIND        PRES    WAVE   SWELL
                       AIR SEA DIR/SP/G            HT/PER HT/PER/DIR
                 (UTC) (F)     (DEG/KT/KT) (MB)    (FT/S) (FT/S/D)
FOLLY BEACH CMAN 1700   82     300/  4/  5 1021.9F
BUOY 41004       1800   82 83  220/  2/  4 1021.1F   3/ 5   2/ 5
BUOY 41008       1800   82 86  150/  6/  8 1021.0F   2/ 8   2/110/ 8
5E ST. MARYS GA  1800      85                N/A     2/10
FRYING PAN BUOY  NOT AVBL
BUOY 41025       1800          VRB 10/ 12  1021.4R   2/ 6   2/170/ 6
CAPE LOOKOUT NC  1700   79     250/  5/  7 1021.7S
BUOY 41002       1716   81 82  200/  8/  8 1023.0F   3/ 9   3/ 90/ 9
BUOY 41010       1800   82 84  130/  4/  6 1021.7F   2/ 9   2/100/ 9
BUOY 41012       NOT AVBL
ST AUGUSTINE FL  1800   81     120/ 11/ 11 1021.4F
CAPERS NEARSHORE 1700   82     150/  2/  4   N/A
FRIPP NEARSHORE  1700   86      CALM  /  2   N/A


$$



USA.gov is the U.S. government's official web portal to all federal, state and local government web resources and services.